RH
40 37 34 32 29 25 20 17 16 15 14 13 14 15 16 16 16 16 16 17 19 22 24 26 26 26 28 31 35 40 46 50 55 58 61 60 59 58 57 59 62 66 72 79 82 82 76 67 65 73 90 88 87 87 88 88 84 79 74 68 62 58 56 55 54 52 50 47 41 34 24 24 22 22 21 42 66 86 94 97 99 99 99 98 97 95
48 44 38 34 31 27 21 17 16 15 14 14 14 14 16 16 17 17 16 17 19 22 26 26 26 26 26 28 31 36 42 46 50 52 55 57 56 55 52 52 54 57 61 71 79 83 78 74 74 78 89 89 88 87 88 89 88 84 77 70 63 58 56 55 53 51 49 46 41 35 28 24 22 21 19 26 46 69 86 93 97 98 99 99 98 97
54 50 44 39 35 31 26 20 17 16 15 14 14 15 16 17 17 18 18 19 21 24 26 28 28 27 25 25 26 30 37 42 46 48 50 50 50 50 49 48 47 48 51 60 72 81 81 78 79 83 87 90 89 88 88 89 88 85 78 72 65 60 55 54 52 50 47 44 41 37 31 26 23 21 19 18 30 50 73 86 93 97 99 99 99 98
60 58 54 48 42 36 32 26 22 18 16 14 14 14 16 16 18 18 19 20 21 23 26 30 31 30 27 24 24 24 29 36 42 45 46 45 45 44 44 44 43 43 43 49 60 73 80 77 77 79 82 87 90 90 89 88 87 84 79 73 66 60 56 55 53 51 48 44 42 40 34 27 23 20 18 15 20 33 55 74 87 94 97 99 99 99
65 66 64 60 54 46 40 34 30 25 20 17 14 14 14 15 17 18 19 20 20 22 25 29 32 33 31 26 23 22 22 26 32 38 42 42 40 40 40 40 40 40 39 40 47 58 70 73 72 70 71 78 85 89 89 88 86 84 80 74 66 60 57 56 55 53 50 46 44 42 38 31 24 20 15 13 14 21 37 58 76 87 94 97 99 99
68 70 70 68 65 60 54 48 43 38 31 23 17 14 13 14 16 17 19 20 20 21 24 28 33 36 36 31 26 22 19 20 23 27 32 35 36 36 36 36 36 35 35 35 38 44 55 63 66 64 59 64 74 83 89 89 87 85 82 76 67 60 56 56 55 54 53 49 45 43 42 37 30 22 15 12 11 14 23 41 58 74 87 93 97 98
70 70 70 71 71 69 66 61 58 54 45 33 23 16 13 13 14 16 18 19 20 20 22 27 33 38 40 36 31 26 20 18 17 18 21 24 28 30 31 31 31 31 30 30 32 36 42 52 58 60 56 54 60 71 85 88 88 87 85 79 71 62 56 54 54 54 53 51 48 45 43 42 37 29 20 14 12 12 16 27 42 58 74 85 92 96
72 70 70 72 73 73 72 69 68 64 56 42 29 20 14 14 14 16 18 19 20 21 22 27 33 39 42 40 36 29 23 18 16 14 14 16 19 22 24 26 26 26 26 26 27 29 34 42 49 55 56 51 51 58 74 85 88 88 86 84 78 71 60 55 53 52 51 50 48 46 40 42 41 37 27 19 14 13 14 20 30 43 58 72 83 92
73 72 71 73 75 76 74 71 70 67 60 44 32 22 16 15 16 17 19 20 21 22 24 29 35 40 44 43 39 32 25 20 16 14 13 13 14 15 17 19 20 21 22 22 23 24 26 33 40 48 53 52 49 50 62 78 87 89 86 85 84 80 70 61 55 52 50 48 46 43 37 37 42 45 37 24 16 13 14 17 24 33 44 58 70 81
73 73 73 74 76 78 78 75 71 65 56 44 34 26 22 20 19 19 20 21 23 25 28 33 38 42 46 46 42 35 27 22 18 15 13 12 12 12 13 14 16 16 17 18 19 20 22 26 33 40 47 50 48 48 53 71 84 90 87 85 85 85 81 71 61 54 50 48 46 43 37 33 38 43 40 26 16 12 13 16 21 27 35 46 57 68
74 74 76 77 78 78 79 76 72 65 58 49 42 36 33 31 28 26 24 24 26 29 33 37 41 44 46 46 43 38 29 23 18 15 13 12 12 12 12 12 12 13 14 15 16 18 19 22 27 34 41 46 47 47 48 64 79 89 89 85 84 86 87 79 69 58 51 49 47 44 40 33 31 31 30 20 14 10 12 16 20 24 30 38 46 56
74 75 78 78 78 77 76 74 72 69 66 62 57 50 45 43 41 38 36 34 33 34 36 39 42 46 47 46 43 38 31 24 19 15 13 12 12 11 11 11 11 11 12 12 13 15 16 19 23 28 35 40 44 45 46 58 74 86 90 86 84 84 86 83 76 66 55 49 46 44 42 36 30 24 19 13 9 8 10 15 19 23 27 33 40 48
74 76 78 78 77 76 74 73 72 72 72 72 69 65 60 58 56 53 50 45 42 40 40 40 42 44 46 46 42 38 32 26 21 16 13 12 12 11 11 10 10 10 10 11 11 12 13 14 17 22 27 34 38 40 42 51 68 83 90 88 86 84 84 83 79 73 63 54 47 42 40 36 31 26 20 13 10 8 10 14 18 21 24 29 35 42
72 76 77 76 74 74 74 74 74 74 74 75 75 74 72 69 67 64 60 55 51 48 46 43 42 42 44 44 42 38 32 27 22 18 15 13 12 11 11 10 10 10 10 10 10 10 10 11 12 14 18 24 30 34 36 44 60 78 88 89 88 86 84 82 79 76 73 62 54 48 44 38 32 27 23 17 12 10 9 12 15 18 22 26 32 38
72 76 76 74 73 73 74 75 76 76 75 76 76 75 74 72 70 68 65 60 55 51 48 44 42 40 42 43 41 36 31 26 23 20 18 15 13 11 10 10 10 10 8 8 8 8 8 8 8 8 10 14 19 23 28 36 51 70 86 89 88 86 83 80 79 78 76 71 64 60 60 53 44 34 26 20 15 11 8 9 12 17 22 26 31 37
72 75 75 74 74 74 75 77 77 77 76 76 76 75 74 72 71 70 68 62 57 52 48 43 40 38 40 42 40 36 30 26 23 21 18 17 14 12 11 10 10 8 8 8 8 7 7 7 6 5 5 7 8 12 16 25 40 60 82 86 87 85 81 79 79 80 80 76 73 72 73 70 60 46 32 24 18 14 9 8 10 14 21 26 32 38
72 74 75 75 74 74 76 78 79 79 78 76 76 76 75 74 72 71 69 64 60 54 49 44 40 36 34 39 40 39 32 27 23 20 18 17 16 15 12 11 10 8 8 7 6 6 6 6 5 4 4 4 4 4 6 14 30 51 74 83 86 85 81 78 78 80 82 78 76 75 75 73 64 51 36 26 20 15 11 8 7 10 17 24 31 38
72 74 76 77 76 76 77 79 80 80 79 77 76 75 74 74 73 71 69 66 62 57 51 46 42 38 32 33 36 38 35 29 24 21 18 17 17 16 14 12 10 8 8 6 6 5 5 5 4 4 4 3 2 2 2 6 20 40 66 78 84 84 82 79 79 80 80 77 74 74 73 68 58 46 34 26 20 16 12 8 6 8 12 20 29 38
72 76 79 79 79 78 79 81 82 82 80 78 77 76 74 74 72 71 69 66 63 58 53 48 43 40 36 34 34 35 35 30 26 22 19 17 18 18 15 12 10 8 7 6 5 4 4 4 4 4 4 3 2 2 1 1 10 28 55 73 81 82 82 81 80 78 76 74 71 67 64 57 48 39 31 26 21 16 13 10 7 6 8 16 25 35
71 75 79 81 81 80 80 82 83 83 82 80 78 76 75 74 72 70 68 66 63 60 55 50 45 41 38 36 35 34 34 31 27 23 20 17 17 18 16 13 10 8 6 6 5 4 3 3 3 3 3 3 3 2 2 0 4 15 36 60 74 81 82 81 80 79 77 73 68 63 58 50 42 37 32 29 24 20 15 11 8 6 5 11 20 30
70 74 76 79 81 82 82 82 83 83 82 81 78 76 74 74 73 71 69 67 64 60 57 52 47 44 42 40 38 36 35 32 27 23 18 16 16 18 18 14 10 8 6 6 5 4 3 2 2 2 3 3 3 3 2 2 1 4 13 36 56 72 80 80 80 79 77 74 70 64 59 52 45 40 37 33 28 23 18 14 10 7 5 8 15 24
68 71 74 76 79 82 83 82 82 82 82 80 78 76 75 74 74 72 71 69 66 62 58 54 50 48 47 44 42 40 38 34 28 23 16 14 15 18 21 15 11 8 6 6 5 4 3 2 2 2 2 2 2 2 3 2 2 1 1 11 28 47 64 72 74 74 73 71 68 65 60 53 47 42 38 35 30 25 20 16 12 9 6 8 12 19
65 68 72 74 78 80 82 82 81 80 80 80 79 78 76 76 75 74 74 72 70 66 61 57 53 50 49 47 45 42 40 35 29 23 17 14 14 18 21 16 12 9 7 7 5 4 2 2 2 2 2 2 2 2 2 2 2 2 0 2 7 18 33 46 56 62 65 66 66 63 60 53 47 42 38 34 30 26 21 17 14 11 8 8 10 14
62 65 68 72 76 79 82 81 80 80 81 81 81 80 79 78 77 76 76 74 72 68 63 58 52 48 46 46 45 42 40 36 29 23 18 14 14 16 19 17 13 10 8 8 6 4 3 2 2 2 2 2 2 2 2 2 2 2 2 1 1 4 10 22 35 47 58 64 66 66 64 58 50 44 38 34 30 26 22 18 15 13 10 8 8 11
58 62 65 68 73 77 82 82 82 82 83 83 83 82 81 80 79 78 76 76 74 70 65 58 52 47 44 45 43 42 40 36 31 24 19 14 12 12 17 16 14 11 9 8 7 5 4 3 2 2 2 1 2 2 2 2 2 2 2 2 1 1 1 8 19 33 49 60 69 74 76 69 58 48 39 35 31 28 24 20 17 14 12 10 9 9
55 58 62 66 70 75 80 82 83 83 83 84 84 83 82 81 80 78 78 77 76 74 69 61 53 47 44 42 41 40 40 37 32 27 21 16 12 11 14 15 13 11 9 8 8 6 5 4 3 2 1 1 1 2 2 2 2 2 2 2 2 1 0 2 8 19 35 50 64 76 81 76 64 50 38 34 32 29 26 22 19 16 14 13 10 9
54 56 60 65 70 74 78 81 82 82 83 84 84 84 83 82 80 79 78 78 78 76 71 62 54 47 44 42 41 40 39 38 34 28 21 16 12 11 12 13 12 10 8 8 8 7 6 5 4 3 2 1 1 1 2 2 2 2 2 2 2 2 1 1 2 8 19 34 52 69 80 77 63 46 34 33 32 30 26 23 20 17 15 14 12 10
53 56 60 65 69 73 77 80 82 82 83 83 84 84 84 83 82 80 79 79 78 76 72 64 56 49 43 42 40 40 40 38 35 28 20 16 14 12 11 11 10 8 7 6 7 7 7 6 5 4 2 2 1 1 1 2 2 2 2 2 2 2 2 1 1 2 8 19 36 55 72 71 58 42 34 37 37 34 29 25 21 18 16 15 14 11
54 57 62 66 69 72 75 78 80 82 83 83 84 84 84 84 83 81 80 80 79 78 74 68 60 53 45 40 38 38 39 39 35 28 20 17 14 12 10 10 10 8 6 5 6 6 6 6 5 4 3 2 1 1 1 1 2 2 2 2 2 2 2 1 1 1 2 8 21 38 55 57 49 42 45 53 53 47 38 31 26 21 16 15 14 13
53 58 62 66 69 71 73 76 79 82 83 83 84 84 84 84 83 82 81 80 80 79 76 72 65 57 48 41 37 36 37 38 34 28 22 20 16 12 10 10 8 8 6 5 5 5 6 6 5 4 3 2 2 1 1 1 1 2 2 2 2 2 2 2 1 1 0 3 10 23 38 42 43 48 63 72 72 64 52 42 34 26 18 15 14 14
52 58 63 66 67 68 70 73 76 80 83 83 83 83 83 84 83 82 81 81 80 79 78 75 70 62 53 44 38 35 34 37 35 29 23 20 16 11 10 9 8 8 7 6 5 6 6 6 6 4 4 3 2 2 1 1 1 1 2 2 2 2 2 2 1 1 0 1 5 12 24 30 40 55 78 81 80 73 63 53 43 33 22 16 14 14
50 57 62 64 65 66 68 71 76 80 83 83 83 83 84 83 83 82 81 81 80 80 79 77 73 66 58 49 41 35 32 37 37 32 24 20 15 11 10 10 9 8 8 7 7 7 7 7 6 5 4 3 3 2 2 1 1 1 1 2 2 2 2 2 1 1 1 0 2 6 15 20 35 58 85 86 82 76 66 58 50 39 26 18 15 14
48 55 60 62 63 64 67 71 76 80 84 84 84 84 84 83 83 82 81 80 80 80 79 78 75 70 62 53 44 38 34 38 38 34 26 22 17 13 11 11 10 10 10 8 8 7 7 8 7 6 5 4 3 3 2 2 1 1 1 1 2 2 2 2 2 1 1 0 1 3 10 14 31 56 84 87 83 76 65 56 50 42 32 22 17 14
44 52 57 59 61 63 66 71 76 80 84 84 84 84 84 84 83 83 82 81 80 80 80 78 76 73 66 58 49 42 38 41 40 35 27 23 19 15 13 13 12 12 11 10 8 7 7 8 8 8 6 4 4 3 2 2 1 1 1 1 1 2 2 2 2 1 1 1 1 2 6 10 26 51 80 86 84 76 63 52 47 44 40 28 20 15
39 45 51 54 57 60 64 70 75 80 83 84 84 85 85 84 84 84 83 82 82 81 80 78 77 76 71 63 55 48 44 46 43 38 30 26 22 18 15 15 15 15 14 13 11 10 8 8 8 8 8 6 4 3 3 2 2 1 1 1 1 1 1 2 2 1 1 1 0 1 4 7 22 45 74 84 84 76 64 51 46 47 50 42 30 19
32 38 44 48 52 57 62 68 74 78 81 83 84 85 85 85 85 84 84 84 83 82 81 79 78 76 74 70 62 55 50 50 47 43 36 31 26 22 20 18 18 18 18 16 14 12 10 9 8 8 8 7 5 4 3 3 2 2 1 1 1 1 1 1 1 2 1 1 1 1 2 6 15 35 67 81 83 77 65 54 51 54 60 59 45 27
26 31 38 43 48 54 60 67 73 78 81 82 83 84 85 85 85 85 84 84 84 84 83 81 79 77 76 74 69 63 57 54 52 49 44 38 32 27 24 22 21 21 20 18 16 14 12 10 8 7 6 6 6 5 4 4 3 2 2 1 1 1 1 1 1 1 2 1 1 1 1 4 10 26 56 75 82 79 68 61 61 64 68 68 56 39
23 26 32 38 44 51 58 65 72 76 80 81 82 82 84 84 85 85 85 84 84 84 84 84 82 79 77 75 72 68 64 60 58 55 51 45 39 33 29 25 24 22 22 20 18 15 12 10 8 6 5 5 5 5 4 3 2 2 2 1 1 1 1 1 1 1 1 1 1 1 1 2 8 21 46 70 80 80 73 70 72 76 74 70 61 48
22 23 27 34 40 48 56 63 70 76 80 81 81 81 82 83 84 85 85 84 84 85 85 85 84 83 80 78 74 72 68 65 62 60 56 52 46 40 34 29 26 24 24 21 18 15 12 10 8 7 6 6 6 5 4 2 2 2 2 2 2 1 1 1 1 1 1 1 1 1 1 1 4 15 38 67 79 80 74 73 80 84 78 71 62 52
23 22 24 30 37 45 53 61 68 74 79 81 81 80 80 82 84 85 85 84 84 83 83 84 84 84 83 81 78 74 72 68 65 62 60 56 51 46 40 35 32 29 27 24 20 16 12 10 8 8 8 7 6 6 4 2 2 1 1 1 1 1 1 1 1 1 1 1 1 1 1 0 2 10 31 60 76 80 76 80 87 89 83 72 62 56
27 23 23 26 32 40 48 57 65 73 78 80 80 80 80 81 83 84 85 84 84 82 82 82 82 83 84 83 81 77 74 71 68 66 63 60 57 53 48 44 40 36 32 29 24 20 14 11 8 7 6 6 6 6 5 4 2 2 1 1 1 1 1 1 1 1 1 1 1 1 1 1 0 6 20 54 71 76 72 83 90 92 91 85 73 60
34 27 24 25 28 34 41 50 60 69 76 79 81 81 80 81 82 83 84 85 84 83 82 81 81 82 83 83 82 79 76 73 70 68 67 65 63 61 58 54 50 45 40 35 30 24 19 13 10 7 6 6 6 6 5 4 3 2 1 1 1 1 1 1 1 1 1 1 1 1 1 1 1 2 6 44 69 78 70 77 85 92 92 92 83 70
42 34 28 25 25 28 33 42 52 62 72 76 80 82 82 82 82 83 84 84 84 84 82 81 80 80 81 83 82 81 77 74 71 69 68 68 67 66 64 61 58 54 48 41 35 30 24 18 12 9 7 6 6 5 4 4 3 2 1 1 1 1 1 1 1 1 1 1 1 1 1 1 1 0 1 26 57 77 70 68 78 88 91 90 86 76
51 42 34 28 24 24 27 34 44 54 64 72 78 81 83 83 83 84 84 84 84 84 83 82 80 80 80 81 82 83 80 76 72 69 67 66 67 67 68 66 64 60 55 48 42 36 30 23 17 12 10 8 6 4 4 4 3 2 1 1 1 1 1 1 1 1 1 1 1 1 1 1 1 0 0 8 40 67 60 60 69 82 89 89 83 74
58 50 41 33 28 24 24 28 35 44 56 65 74 80 83 84 84 84 84 84 84 84 84 82 81 80 80 80 81 82 83 80 75 70 65 65 67 70 72 72 71 67 62 55 47 40 33 27 22 17 13 9 6 4 3 2 2 2 1 1 1 1 1 1 2 2 1 1 1 1 1 1 1 1 0 2 21 46 63 57 58 65 79 86 84 77
61 56 49 40 33 27 24 25 28 35 44 56 66 76 82 84 85 85 84 84 84 84 84 83 82 81 81 81 81 81 83 83 81 76 69 67 68 71 76 76 74 72 67 60 50 42 34 30 26 22 16 10 6 3 2 2 2 2 1 1 1 1 1 1 1 1 1 1 1 1 1 1 1 1 0 0 7 26 58 60 55 52 61 78 84 84
63 60 55 47 40 33 27 25 25 28 34 44 56 68 77 82 84 85 85 85 85 84 84 84 84 83 83 82 82 82 83 84 84 82 76 72 72 73 76 76 76 74 71 64 56 46 38 33 28 24 17 12 8 4 2 1 1 1 1 1 1 1 1 1 1 1 1 1 1 2 2 1 1 0 1 0 0 8 33 52 54 49 46 66 80 88
64 62 58 54 47 40 32 28 25 24 26 34 44 57 70 78 82 84 84 85 85 85 85 85 85 85 84 84 83 83 83 84 85 84 81 77 76 76 77 76 76 74 73 69 62 54 45 38 31 24 17 12 8 6 4 3 2 1 2 1 1 1 1 1 1 1 1 1 1 2 2 2 1 0 0 0 0 2 10 34 46 46 35 54 72 82
66 64 61 58 53 46 39 33 28 24 23 26 33 44 57 70 78 83 85 85 85 85 86 85 85 85 85 85 84 84 83 83 84 84 83 81 81 80 80 78 75 73 71 69 65 60 53 45 36 26 17 13 10 8 8 8 8 6 6 3 2 1 1 1 1 2 2 2 2 2 2 2 1 1 0 1 0 0 0 17 32 40 34 40 54 68
67 66 64 61 57 52 46 39 33 28 24 24 26 32 42 57 70 79 84 85 85 85 86 86 86 86 86 86 85 84 84 83 83 83 84 84 84 84 84 80 76 72 68 66 65 64 63 56 46 36 25 20 17 16 18 20 21 18 13 8 4 2 2 2 3 3 3 2 2 2 2 2 2 2 1 1 0 0 0 6 17 30 42 32 34 42
68 67 66 63 60 56 51 45 40 34 29 26 24 26 30 42 56 70 81 84 85 85 85 86 86 86 86 86 86 86 85 84 84 84 84 86 86 87 86 83 79 74 69 68 70 73 74 69 61 53 46 42 38 36 36 38 38 35 26 18 14 12 10 10 10 10 8 5 4 3 3 2 2 2 1 0 0 0 0 0 4 14 34 30 24 20
Wind_Speed
33 32 31 30 29 27 25 24 23 22 21 20 19 19 19 19 20 20 21 22 22 22 21 21 23 27 31 34 36 36 35 35 35 35 36 37 38 39 39 38 37 35 33 29 33 44 53 56 56 52 44 36 36 41 47 51 54 56 57 58 58 59 60 62 65 67 68 69 69 68 67 68 71 76 82 88 88 80 69 59 54 52 52 52 53 57
33 32 31 30 29 27 24 23 23 23 22 21 20 19 19 19 19 19 19 20 21 22 21 21 21 23 27 31 34 36 36 36 36 37 37 37 38 39 39 39 38 37 35 31 33 42 53 57 58 56 49 40 36 40 45 49 53 56 57 58 59 60 60 61 63 65 67 69 69 68 68 68 70 74 80 86 89 86 77 65 56 53 52 49 49 52
35 34 32 30 29 27 25 24 23 23 23 22 22 21 20 20 19 19 19 19 20 21 21 21 21 21 23 26 29 33 35 37 37 38 38 39 39 39 39 40 40 39 38 35 33 39 50 56 58 57 53 45 39 39 44 49 52 55 56 58 59 59 60 61 62 64 66 68 69 69 68 68 70 73 78 83 87 89 84 73 62 56 53 49 47 48
38 38 36 34 31 29 27 26 25 24 24 23 23 22 21 21 20 20 19 19 20 20 21 21 21 20 20 22 25 29 33 35 37 38 39 39 39 40 40 40 40 40 40 38 36 38 45 52 56 57 54 48 41 38 42 47 50 53 55 56 58 58 59 60 61 62 64 66 67 68 68 69 70 72 77 80 84 87 88 81 72 63 56 52 47 45
41 42 41 39 36 33 30 28 28 27 25 24 24 23 22 22 21 21 20 20 20 20 20 21 21 21 20 20 22 25 28 32 35 37 38 38 39 39 39 40 40 41 42 41 40 41 43 48 52 54 54 50 43 38 40 45 49 51 53 55 57 57 58 59 60 61 63 65 66 67 68 68 70 72 76 79 81 83 86 86 81 72 64 57 51 48
43 44 44 43 41 37 34 31 30 29 27 26 24 23 23 22 22 21 21 21 20 20 20 20 21 21 21 20 20 22 24 28 31 34 36 37 37 38 38 39 40 41 42 43 43 43 44 46 49 52 53 52 46 41 39 43 47 51 52 54 56 57 58 59 60 61 62 63 64 65 66 67 69 71 74 77 78 80 83 85 85 81 73 65 58 53
44 45 45 45 42 39 36 34 32 30 29 27 26 24 23 23 22 22 22 21 21 21 20 20 21 21 21 21 20 20 22 24 27 30 32 34 35 36 36 37 39 40 42 43 44 45 46 47 48 50 52 53 51 46 42 42 46 50 51 52 54 56 57 59 60 61 62 62 63 64 65 66 67 69 71 74 76 78 80 82 84 84 80 74 66 60
45 46 45 45 43 40 36 33 31 30 29 28 27 25 24 23 23 22 22 22 21 21 20 20 20 20 21 21 21 20 21 22 24 26 29 31 33 34 35 36 38 39 41 43 45 46 47 48 49 50 52 54 55 52 47 44 46 49 51 51 52 54 57 59 60 61 62 63 63 64 65 64 64 65 68 72 74 76 77 79 81 83 83 79 74 68
46 46 46 44 42 40 36 32 29 27 27 27 27 26 25 24 23 22 22 22 21 21 21 20 19 19 20 21 21 21 20 21 22 24 26 28 30 32 34 35 37 38 40 42 44 46 47 49 50 51 52 54 56 56 52 48 47 50 52 52 51 53 55 58 60 61 62 63 64 64 65 64 62 62 66 70 73 75 76 77 78 80 82 81 78 74
46 47 46 43 39 37 35 31 27 25 25 25 26 26 26 26 25 24 22 22 21 21 21 20 19 18 19 20 21 21 20 20 21 22 24 26 28 30 32 34 36 37 39 41 42 44 46 48 50 52 53 55 57 58 57 52 50 50 53 54 52 52 53 56 58 61 62 63 64 65 65 65 64 63 66 70 72 73 74 75 76 77 79 79 79 77
46 46 44 41 36 33 31 28 26 25 25 25 25 26 26 27 27 26 25 23 22 21 20 19 18 18 18 19 20 20 20 20 20 21 23 25 27 29 31 32 34 36 37 39 41 42 44 46 48 51 53 55 57 59 59 56 53 52 54 55 55 53 52 53 56 59 61 63 64 65 65 66 66 67 68 71 71 72 72 73 74 75 76 77 77 76
45 43 41 38 34 31 28 26 25 24 25 25 25 25 25 26 27 27 26 25 23 22 20 18 17 17 17 18 19 20 20 19 19 20 21 23 25 27 29 31 33 34 36 37 39 40 42 43 46 48 51 53 56 58 60 59 56 53 54 56 57 55 53 53 55 57 60 62 63 64 65 66 66 67 69 69 69 68 69 70 71 73 74 75 75 75
41 40 37 35 32 30 28 27 26 25 25 25 26 26 26 26 27 27 27 26 24 23 21 18 16 16 16 18 19 19 20 19 19 19 20 22 23 26 27 29 31 32 34 35 37 38 39 41 43 45 48 51 54 57 60 61 59 56 54 55 57 58 57 55 55 56 58 60 62 63 64 65 66 67 67 67 66 65 65 67 69 71 72 73 74 74
38 36 34 32 31 29 29 28 28 27 26 26 26 26 26 26 26 26 26 25 24 23 21 19 16 15 15 17 18 19 19 19 19 18 19 20 22 24 26 27 29 31 32 33 35 36 37 39 40 43 45 48 51 54 58 61 61 58 55 55 57 59 59 58 57 56 56 58 59 60 62 63 65 66 66 66 65 64 64 65 67 69 71 72 73 73
36 34 33 32 31 30 30 29 29 28 27 26 26 26 26 26 25 25 25 24 23 22 20 19 17 15 15 16 18 19 19 19 19 18 19 19 21 23 24 26 27 29 30 31 33 34 35 37 38 40 43 45 48 52 56 60 62 60 57 56 57 59 60 60 59 57 56 56 56 56 56 58 61 64 65 66 65 63 63 63 65 67 70 72 73 73
34 34 33 33 32 31 30 30 30 29 28 27 26 26 26 26 25 25 25 24 23 22 20 18 16 15 14 15 17 18 19 19 19 18 18 19 20 21 23 24 26 27 28 30 31 32 33 35 36 38 40 43 46 49 53 58 62 62 60 57 57 59 60 61 60 59 58 57 56 55 54 55 58 62 64 65 64 63 62 63 64 66 68 70 72 73
34 33 33 32 32 31 30 29 29 29 28 28 27 26 26 26 25 25 24 24 23 22 21 19 17 15 14 14 15 17 19 19 19 18 18 18 19 20 22 24 25 26 27 28 29 30 32 33 35 37 38 41 43 46 50 55 60 62 62 59 58 58 60 61 61 60 60 59 58 57 57 58 59 62 63 64 64 63 62 62 63 64 67 69 71 72
33 33 32 32 32 31 30 29 28 28 28 27 27 26 26 25 25 25 24 24 23 22 21 20 18 16 15 13 14 16 18 19 18 18 18 18 19 20 22 23 24 25 26 27 28 29 31 32 34 35 37 39 41 43 46 51 57 61 62 60 58 58 59 60 61 62 62 62 61 60 60 61 62 62 63 63 63 62 61 61 62 63 65 67 70 71
33 32 31 31 31 30 29 28 27 27 27 27 26 26 25 24 24 24 24 23 23 23 22 20 19 17 15 14 14 15 17 18 18 18 18 18 19 20 22 23 24 24 25 25 26 28 29 31 32 33 35 37 38 40 43 47 53 58 61 61 59 58 59 60 61 62 63 63 63 63 62 62 62 62 62 62 62 62 61 61 61 62 64 66 68 70
32 31 30 30 30 30 28 27 26 26 26 26 26 26 25 24 24 23 23 23 23 22 22 21 20 18 16 15 15 15 16 18 18 18 18 18 18 19 22 23 23 23 24 24 25 27 28 29 30 31 33 35 36 38 40 44 48 54 59 61 61 59 59 59 60 61 62 63 63 63 63 62 62 61 61 61 61 61 61 61 60 61 63 65 67 69
31 30 29 29 29 29 28 26 25 25 26 26 26 26 26 25 24 24 23 23 22 22 21 21 19 18 17 16 15 15 16 17 18 19 19 18 18 19 21 23 23 23 23 23 25 26 27 28 28 30 31 33 35 36 38 41 44 49 55 59 61 61 60 59 59 60 61 62 62 62 62 62 61 61 60 60 60 61 61 61 60 61 62 64 66 69
30 29 28 27 27 27 27 26 26 26 27 27 28 28 27 27 26 25 23 23 22 21 21 20 19 19 18 17 16 15 16 17 18 19 19 18 18 18 21 23 23 23 22 23 24 25 26 26 27 28 30 31 33 35 37 39 41 45 49 54 58 60 61 61 60 60 60 60 60 61 61 61 61 60 60 60 60 61 61 61 60 60 61 63 65 68
29 29 28 27 27 27 27 27 27 27 28 28 29 29 29 28 27 26 24 23 22 22 21 21 20 19 19 18 17 16 17 17 18 19 19 18 17 18 21 23 23 22 22 22 23 24 25 25 26 27 29 30 32 34 35 37 39 41 45 49 53 57 59 60 61 60 59 58 58 58 59 59 59 60 60 60 60 60 60 61 60 61 61 62 64 66
29 29 29 29 28 28 28 28 28 28 28 29 29 30 29 28 27 26 25 24 23 22 21 21 20 19 18 18 18 17 17 18 19 19 20 18 17 18 20 22 23 23 22 22 23 23 24 24 25 26 28 29 31 32 34 36 37 39 41 44 48 52 55 58 59 59 59 57 56 56 56 56 57 58 59 59 60 60 60 60 61 61 61 61 63 65
29 29 29 29 29 29 29 28 28 28 28 29 29 29 29 28 27 26 25 23 22 21 21 20 20 18 18 18 18 18 17 18 19 20 20 19 18 18 19 22 23 22 22 22 22 23 23 23 24 25 27 28 30 31 33 34 36 38 39 42 44 47 51 54 56 58 58 58 57 55 54 55 56 57 58 58 59 59 59 60 60 61 61 62 62 64
28 28 29 29 30 30 29 29 28 28 28 28 29 29 29 28 27 25 24 23 22 21 21 20 19 18 18 18 18 17 18 18 19 20 20 20 19 18 19 21 22 22 21 21 22 22 23 23 24 25 26 27 29 30 32 33 34 36 38 40 42 44 47 50 54 56 58 58 58 57 55 55 56 56 57 57 58 58 59 59 60 61 61 62 62 63
27 28 29 29 30 30 30 30 29 28 28 28 28 28 28 28 27 25 24 23 21 21 21 20 19 19 18 18 18 18 18 19 20 20 21 20 19 19 19 20 22 22 21 21 22 22 22 22 23 24 26 27 28 29 31 32 33 35 36 38 40 42 45 48 51 54 56 58 59 59 58 57 57 57 56 56 57 58 58 59 60 60 61 62 62 63
27 28 29 29 30 30 30 30 30 30 29 28 28 27 27 27 26 25 24 22 21 21 20 20 19 19 18 18 18 18 18 19 20 21 21 21 20 19 19 20 21 21 21 21 22 22 22 22 23 24 25 26 27 28 29 31 32 34 35 37 39 41 43 45 48 51 53 56 58 59 60 59 58 57 56 56 56 57 58 59 59 60 61 62 62 63
27 28 28 29 30 30 30 30 30 30 29 29 28 27 27 26 26 25 23 22 21 20 20 19 19 18 18 18 18 17 17 18 20 21 22 22 21 20 20 20 21 21 21 21 21 21 21 22 22 23 24 25 26 27 29 30 31 32 34 35 37 39 41 43 46 48 51 54 57 59 60 60 59 57 56 55 55 56 57 58 59 60 61 62 62 63
27 27 28 29 29 30 30 30 30 29 29 28 28 27 27 26 25 24 23 21 21 20 19 18 18 18 18 18 17 17 16 17 19 21 22 22 21 21 21 21 21 21 21 21 21 21 21 22 23 23 24 24 25 27 28 29 30 31 33 34 36 37 40 42 44 47 49 52 55 58 60 60 59 58 57 56 55 56 57 57 58 60 61 62 62 63
27 27 28 28 29 29 30 30 29 29 28 28 27 26 26 25 24 23 22 21 20 20 19 18 17 17 17 18 17 15 14 15 18 21 22 22 22 21 21 21 21 20 20 20 21 21 21 22 23 23 24 24 25 26 27 28 30 31 32 33 34 36 38 40 43 45 48 51 54 56 59 60 60 60 59 58 57 57 57 57 58 59 61 62 62 63
28 28 28 29 29 29 30 30 29 29 28 27 26 25 25 24 23 22 21 20 19 19 18 17 17 16 17 17 16 15 14 14 17 20 22 22 22 22 22 21 21 20 20 20 20 20 20 20 22 23 23 24 24 25 26 27 29 30 31 32 33 35 37 39 42 44 47 50 52 55 57 60 61 62 62 61 59 58 58 58 58 59 61 62 63 63
28 28 29 29 29 29 29 29 29 28 27 26 25 24 23 23 22 22 21 20 19 18 18 17 16 16 16 16 16 15 14 14 17 20 22 23 23 22 22 22 21 21 20 20 20 20 19 19 20 22 23 23 24 25 25 27 28 29 30 31 33 34 36 38 40 43 46 48 51 54 56 59 62 64 64 62 60 59 59 59 59 59 60 62 63 63
29 28 28 28 28 29 29 29 28 27 26 25 24 23 22 22 22 21 20 19 19 18 17 16 16 15 15 15 15 14 14 15 17 20 22 23 23 23 22 22 21 21 20 20 20 20 20 20 20 21 22 23 23 24 25 26 27 28 30 31 32 33 35 36 38 41 44 47 50 52 55 59 62 64 64 62 61 60 59 59 59 59 59 61 62 63
29 28 28 28 28 28 28 28 27 26 25 24 23 22 22 21 21 21 20 19 18 18 17 16 15 15 15 15 14 14 14 15 18 20 22 23 23 23 23 22 21 21 21 20 20 20 20 20 20 21 22 22 23 23 24 25 26 28 29 30 31 32 33 35 37 40 43 45 48 51 55 59 63 65 65 63 61 60 59 59 59 59 59 60 62 63
28 28 27 27 27 27 27 27 27 26 25 24 23 22 21 21 20 20 20 19 18 18 17 16 16 15 14 14 14 14 15 16 18 20 21 22 23 23 23 22 21 21 21 21 20 20 20 20 20 21 21 22 22 23 24 25 26 26 27 29 30 31 32 34 36 38 41 43 47 50 54 58 62 65 65 64 62 61 60 59 59 59 59 60 61 63
28 28 28 27 28 27 27 27 27 26 25 23 22 21 21 20 20 20 19 19 18 17 17 16 16 15 14 14 14 14 15 17 18 20 21 22 23 23 23 22 21 21 21 21 21 21 21 21 21 21 22 22 22 22 23 24 25 26 27 28 29 30 32 33 35 37 39 42 45 49 53 57 62 65 66 65 63 62 61 60 59 59 60 60 61 62
29 29 28 28 28 28 28 27 27 26 25 24 23 22 21 20 19 19 19 19 18 17 16 16 15 15 14 14 14 14 15 17 18 19 21 22 22 23 22 22 21 20 20 21 21 21 22 22 22 22 22 22 22 22 23 24 25 26 27 28 29 30 31 33 34 36 38 41 44 47 51 56 61 65 67 66 65 63 63 62 61 60 61 61 62 63
30 30 29 29 29 29 28 28 27 27 26 25 24 22 21 20 19 19 19 18 18 17 15 14 14 14 14 14 14 14 15 16 17 19 20 21 22 22 22 21 20 20 20 20 21 22 23 23 23 23 22 22 22 22 23 24 25 26 27 27 28 29 30 32 33 35 37 40 42 45 49 54 59 64 67 67 66 65 64 64 63 62 62 62 63 63
31 31 30 30 29 29 29 28 28 27 26 25 24 23 22 20 19 19 18 18 17 16 15 14 13 13 14 14 14 15 15 16 17 18 19 20 21 21 21 21 20 20 20 20 21 22 23 24 24 24 23 22 22 22 23 25 26 26 26 26 27 28 30 31 33 35 37 39 41 44 47 52 58 63 67 67 67 66 66 66 66 65 64 64 64 64
31 31 31 30 29 29 29 28 28 27 26 26 25 24 22 21 19 18 17 17 16 16 15 13 12 12 13 14 15 15 16 16 17 17 18 19 20 20 20 20 20 20 20 20 21 22 23 24 24 24 24 23 23 23 24 24 25 26 26 27 28 29 30 31 32 34 36 38 40 43 46 50 55 62 67 69 69 68 68 69 68 67 66 65 65 65
31 31 31 30 30 29 29 29 28 27 27 26 25 24 23 22 20 18 17 16 15 15 14 13 12 11 11 12 14 15 16 17 17 17 18 18 19 19 20 20 20 20 21 21 22 23 23 24 25 25 24 24 24 24 24 24 25 26 27 28 28 29 29 29 31 33 34 37 39 42 45 48 53 59 65 69 70 69 69 70 69 68 67 66 66 67
31 31 31 30 30 30 29 29 28 28 27 26 25 25 24 22 21 19 17 16 15 14 14 13 12 12 11 11 13 15 16 17 17 17 17 17 18 18 18 18 19 20 21 22 22 23 24 25 25 25 25 25 25 25 24 24 25 27 28 29 28 27 27 28 30 32 34 36 38 41 44 47 51 57 63 68 71 71 70 70 70 70 69 68 68 68
31 31 30 30 30 30 30 29 29 28 27 27 26 25 24 22 21 20 18 16 15 14 13 13 12 11 11 11 12 13 16 17 17 17 17 16 16 16 16 17 17 18 20 21 22 23 24 24 25 25 25 25 26 26 26 25 26 27 28 29 28 28 29 30 31 32 33 35 37 40 43 46 50 54 60 65 70 72 71 71 71 71 70 69 69 69
30 30 30 30 30 30 30 29 29 28 28 27 26 25 24 23 21 20 18 17 15 14 13 12 11 11 10 10 11 13 14 16 17 17 17 16 16 15 15 15 16 17 19 20 22 23 23 24 24 24 24 25 26 27 27 26 27 27 28 28 29 30 31 31 31 31 33 35 36 39 42 45 48 52 56 62 68 72 73 73 72 72 71 69 69 70
30 30 30 30 30 30 30 30 29 29 28 28 27 26 25 23 22 21 19 17 16 14 13 12 11 10 10 10 11 12 13 15 16 18 19 18 17 16 16 16 16 17 18 20 21 22 23 23 22 22 23 25 26 27 27 27 27 27 27 28 29 30 30 30 30 31 32 34 36 38 41 43 46 49 54 59 65 71 74 74 74 73 72 70 70 70
31 30 30 30 30 30 30 30 29 29 29 28 27 27 25 24 22 21 20 18 17 15 13 12 11 11 10 11 11 12 12 13 14 17 19 20 19 18 18 17 17 18 19 20 20 21 21 21 21 22 23 24 25 26 27 27 27 26 27 28 29 30 30 30 31 32 33 34 35 37 39 42 44 48 52 57 63 68 73 75 75 74 73 72 72 71
31 31 30 30 30 29 29 29 29 29 29 28 28 27 26 25 23 22 20 19 17 16 14 13 11 11 10 10 11 11 12 12 13 15 17 19 20 20 20 19 18 18 19 19 20 20 19 19 20 21 23 24 24 24 24 25 25 26 26 27 29 30 30 31 32 33 34 35 36 37 38 41 44 48 51 55 59 64 70 74 75 75 74 74 73 73
31 31 31 30 29 29 29 29 29 29 29 29 28 27 27 25 24 22 21 19 18 17 15 13 12 10 10 10 10 11 11 12 13 14 16 17 18 20 20 20 19 19 19 19 19 18 18 17 18 20 21 23 23 23 22 22 23 24 25 27 28 29 30 31 32 33 34 35 36 37 39 41 44 48 50 53 56 61 66 72 74 75 75 74 74 74
31 31 31 30 30 29 29 29 29 29 29 29 29 28 27 26 24 23 21 19 18 17 16 14 12 11 9 9 9 9 10 11 12 13 14 15 16 18 19 19 19 19 19 19 19 18 17 17 16 17 19 20 21 21 20 20 21 22 24 26 27 29 29 30 30 31 33 35 36 38 39 41 44 46 48 51 55 59 64 69 72 75 75 75 75 75
31 31 31 30 30 29 29 29 29 29 29 29 29 28 28 27 25 23 21 19 18 17 16 15 13 12 10 8 8 8 9 9 10 11 13 14 14 15 16 17 18 18 19 20 20 20 19 18 17 16 17 17 18 19 20 20 20 21 23 25 26 27 28 28 29 30 32 35 37 38 40 41 43 44 47 50 54 57 61 65 70 73 74 75 74 74
Wind_Direction
332 332 330 328 325 322 318 315 313 309 303 298 293 289 284 280 278 279 280 283 285 287 286 280 270 263 259 258 257 255 251 247 243 240 238 237 236 236 235 236 237 238 236 227 208 197 194 194 198 202 205 203 195 189 189 193 199 204 206 209 211 212 212 212 213 214 214 216 217 217 217 217 216 213 210 207 206 206 206 202 196 193 192 194 199 206
335 333 332 330 328 325 321 318 317 314 310 304 298 293 288 284 281 280 280 281 283 285 286 284 277 268 262 259 257 254 252 249 245 241 239 237 236 234 233 233 234 235 234 228 212 199 195 195 198 203 207 206 200 192 188 191 197 202 205 208 210 211 212 212 212 212 213 214 215 216 217 217 217 215 212 209 207 207 207 205 200 195 193 194 198 203
336 335 334 333 331 329 327 324 321 318 314 310 304 298 293 288 285 284 284 283 283 284 285 285 282 275 267 261 258 255 252 249 246 242 239 237 235 234 233 232 232 232 232 229 217 203 198 198 201 204 208 209 205 196 190 191 195 200 204 207 209 210 212 212 212 213 213 214 214 215 216 217 217 217 215 211 208 207 208 207 204 200 197 196 198 203
337 335 335 335 334 332 331 329 325 321 317 313 307 301 296 292 288 286 286 287 287 286 285 284 283 279 272 264 258 255 252 249 246 244 241 238 237 235 234 233 232 232 231 228 221 210 204 204 205 208 211 212 209 201 194 192 194 199 204 206 208 210 211 212 212 213 213 214 214 215 216 216 217 218 216 213 210 208 208 208 207 205 202 200 200 203
335 333 333 334 334 333 332 330 328 324 319 314 309 304 299 294 291 288 287 288 289 289 287 285 283 281 275 267 259 254 251 249 247 245 243 241 240 238 237 236 235 233 231 229 223 217 211 208 208 210 213 214 213 208 199 194 194 198 203 207 209 210 211 211 212 212 213 214 214 215 216 217 218 218 217 214 211 209 209 209 209 209 207 205 204 204
332 330 330 331 331 332 331 330 328 324 319 314 309 305 301 296 292 290 289 289 289 290 288 286 284 281 277 271 263 255 250 247 246 245 244 243 242 241 239 238 237 235 233 230 225 221 215 211 209 210 212 214 215 213 206 198 195 197 202 207 209 210 211 211 211 212 212 213 215 215 216 217 218 219 218 216 213 211 210 209 210 210 211 210 208 207
328 327 327 328 329 329 328 327 325 323 318 313 309 304 301 297 293 291 289 289 289 290 289 287 284 280 277 272 266 258 251 246 244 243 243 243 242 241 240 238 237 235 233 230 227 223 219 215 212 210 210 212 214 215 213 204 197 196 200 205 209 211 211 211 211 212 212 213 214 215 216 217 218 219 219 217 215 212 211 210 210 211 212 212 212 211
324 324 325 326 326 326 325 324 323 319 315 310 307 304 300 296 293 291 289 289 289 290 289 287 283 279 276 272 268 261 253 247 243 241 240 240 239 239 238 237 235 233 231 229 227 224 221 218 215 212 210 210 212 214 215 210 202 197 198 203 207 210 211 212 212 212 212 212 213 214 215 216 217 219 220 218 216 213 212 211 210 211 212 213 214 214
320 321 323 323 323 323 322 322 320 316 311 308 305 303 301 298 294 291 289 289 290 291 290 287 283 278 274 271 268 263 256 249 243 240 238 237 236 236 235 235 233 232 230 228 226 224 222 220 218 215 213 211 211 212 214 213 207 202 199 202 205 209 211 211 212 212 212 213 213 214 215 215 215 217 219 218 216 214 212 211 211 211 211 213 214 215
317 318 319 321 322 322 321 320 318 314 310 307 305 304 302 300 298 294 292 291 291 291 291 288 284 278 272 269 266 263 257 250 244 239 236 235 234 234 233 233 232 231 229 227 226 224 223 221 219 217 215 213 211 211 211 213 211 207 203 202 204 207 209 211 212 213 213 213 214 214 215 215 215 216 218 218 216 214 212 211 211 211 211 212 213 215
314 315 317 319 322 323 322 321 319 315 312 308 305 303 302 301 300 298 296 294 293 292 291 289 284 277 270 266 263 262 258 252 245 239 235 233 232 232 232 231 231 230 229 227 225 224 223 222 221 219 217 215 213 211 210 211 212 210 206 205 205 206 208 210 212 213 214 214 214 215 216 216 217 218 219 219 217 215 213 212 211 211 211 211 213 214
311 314 316 319 321 324 324 324 322 320 316 313 309 305 303 301 300 300 300 299 297 295 292 288 282 276 270 265 261 260 257 253 247 240 235 232 231 230 230 230 229 229 228 227 225 224 223 222 221 220 218 216 214 212 210 210 211 211 209 207 206 207 208 210 212 213 214 215 215 215 216 217 218 219 220 220 218 216 214 212 211 211 211 211 212 213
312 315 317 320 323 326 328 328 327 325 322 318 315 311 308 304 302 301 301 300 300 298 294 288 281 273 268 264 261 259 257 254 248 242 236 232 230 229 229 228 228 227 227 226 225 224 223 222 220 219 218 217 215 213 211 210 210 211 210 208 207 208 209 210 211 213 214 215 215 216 216 217 218 219 220 220 218 216 214 213 211 211 211 211 211 212
315 317 319 322 325 328 330 330 328 326 324 321 318 314 311 308 306 304 303 302 300 298 295 290 282 273 266 262 260 258 256 254 249 244 238 233 230 229 228 227 226 226 225 225 224 223 222 221 220 218 217 216 215 214 212 211 211 211 211 209 208 209 210 210 211 212 213 214 215 216 217 218 219 220 220 219 218 216 214 212 211 211 210 211 211 211
318 320 322 325 328 329 330 328 327 325 324 321 319 316 314 311 309 307 305 304 302 299 295 290 283 274 266 262 260 258 256 253 250 246 241 236 232 230 229 228 227 226 225 224 223 222 221 220 218 217 216 216 215 214 213 211 211 211 211 210 209 209 211 211 211 211 212 213 214 214 216 217 219 220 220 219 218 216 214 212 211 210 210 210 210 210
320 322 324 326 328 328 328 326 325 323 322 321 319 316 314 313 311 309 307 305 303 301 297 292 285 275 266 262 260 258 256 254 251 247 243 239 236 233 231 229 227 226 225 224 223 222 220 219 218 216 215 215 215 215 214 212 211 211 212 211 210 210 211 212 212 211 211 212 212 212 213 215 218 219 220 219 218 216 214 212 210 209 209 209 209 209
322 323 325 326 326 326 325 324 323 322 321 319 318 316 314 313 311 309 307 306 304 301 298 294 288 279 267 258 257 259 257 255 252 248 244 241 239 237 234 232 229 226 225 224 223 221 220 219 217 216 215 215 215 215 215 213 212 211 211 211 210 210 211 212 212 212 212 212 211 211 212 214 216 218 219 219 217 216 214 212 211 209 208 208 208 208
323 324 325 324 323 322 322 321 321 320 320 319 317 316 314 312 310 309 307 305 303 301 298 295 291 285 275 260 254 256 257 256 253 249 245 242 240 238 237 235 232 228 226 225 223 222 220 219 217 216 215 215 216 216 215 214 213 212 211 211 211 211 211 212 213 213 213 213 212 212 213 214 216 217 218 218 217 216 214 213 211 210 209 208 207 208
322 324 324 323 321 320 320 320 320 320 320 320 319 317 315 313 311 308 306 304 301 299 298 295 292 287 281 270 260 256 256 256 254 250 246 242 239 238 239 238 234 231 227 226 224 223 221 219 217 216 215 215 216 216 216 215 214 212 212 212 212 211 211 211 212 213 214 214 214 213 214 214 215 216 217 217 217 216 214 213 211 210 209 208 208 207
322 323 323 321 319 318 318 319 320 321 321 322 321 320 319 316 313 309 306 303 300 298 296 294 292 289 284 276 267 261 258 256 254 251 247 242 238 237 239 239 236 232 228 226 225 224 222 220 218 217 216 216 216 216 216 216 215 214 213 213 213 212 212 211 212 213 214 215 215 215 215 215 216 216 216 217 216 215 214 213 211 210 209 209 208 207
320 321 321 319 317 317 317 319 321 322 323 323 323 323 322 320 316 313 309 305 301 298 295 292 291 288 285 279 273 267 263 259 256 253 248 242 237 235 238 239 238 234 230 228 227 225 223 220 218 217 216 216 216 216 216 216 215 215 214 214 214 214 213 213 213 214 215 215 216 216 216 216 216 216 216 216 216 215 214 212 211 210 209 208 208 208
320 320 320 318 317 316 317 318 320 322 324 325 326 325 324 322 319 315 312 308 303 299 296 293 290 288 285 282 278 272 267 263 259 255 249 242 235 232 236 239 238 236 232 230 228 226 224 221 219 217 216 215 215 215 216 216 215 215 215 215 215 215 215 214 214 215 215 216 216 216 215 215 215 215 216 216 215 214 213 212 210 209 208 208 208 208
321 321 321 320 318 317 317 317 320 322 325 326 326 324 323 321 319 316 314 311 306 302 297 293 289 286 284 282 278 274 269 266 261 256 251 244 234 229 234 238 238 236 233 230 229 227 224 221 219 217 216 216 215 215 215 215 215 215 215 215 215 216 216 216 216 215 215 215 215 215 215 214 214 214 214 215 214 214 213 212 210 209 208 208 208 207
324 323 323 322 321 320 319 320 321 323 325 325 324 322 320 319 317 316 315 312 309 304 299 292 287 284 282 280 277 273 270 267 262 258 254 247 237 230 232 236 237 236 233 231 229 227 224 222 219 218 217 216 215 215 215 215 215 215 215 215 216 216 216 216 216 215 215 214 213 213 213 213 213 213 213 213 213 213 212 211 210 209 208 208 207 207
325 325 324 324 323 323 322 322 323 323 324 322 321 319 318 316 315 315 314 312 309 305 300 294 288 284 280 276 272 270 269 266 263 261 257 250 241 232 232 235 237 236 234 232 230 228 225 223 220 219 217 216 215 215 214 214 215 215 215 215 216 216 216 216 216 215 214 212 211 210 210 212 212 212 211 211 211 211 211 211 210 209 208 207 207 207
326 326 326 326 325 324 324 323 322 322 321 320 318 317 316 315 315 314 313 311 308 304 299 294 289 283 277 272 270 268 266 264 263 261 258 253 244 236 234 235 236 236 233 231 230 229 226 224 221 219 218 216 215 215 214 214 214 214 215 215 215 215 215 215 215 214 213 211 208 207 208 210 211 211 210 209 209 210 210 210 209 208 208 207 206 206
328 328 328 327 327 326 325 324 322 321 320 319 317 315 314 314 314 314 313 311 307 303 299 294 289 283 277 273 270 267 264 263 262 260 257 253 247 241 237 236 236 235 233 231 229 228 226 224 222 220 218 217 216 215 214 214 214 214 214 215 215 215 215 215 215 214 213 211 208 206 207 209 210 210 209 208 208 208 209 209 209 208 207 207 206 205
330 330 330 329 328 327 326 325 324 322 321 319 317 315 313 313 313 313 312 311 307 304 300 296 291 285 279 274 270 266 263 262 261 259 256 253 249 245 240 238 237 235 233 231 229 228 227 225 223 221 219 217 216 215 214 214 214 214 214 214 215 215 215 215 214 214 213 211 209 207 207 209 209 209 208 207 207 208 208 208 208 208 207 206 205 205
332 331 331 330 330 329 327 326 325 323 321 319 317 315 313 312 311 311 311 309 307 304 301 297 291 287 281 275 270 265 263 263 261 258 256 254 251 247 242 239 238 236 234 231 229 228 227 226 224 223 221 218 216 215 214 214 214 214 214 214 214 214 214 214 214 213 213 212 210 209 208 209 209 208 206 205 206 207 208 208 208 208 207 206 205 204
333 332 331 331 330 329 328 327 325 323 321 320 317 315 313 311 310 310 309 308 306 305 301 296 291 286 282 277 271 267 264 262 260 258 255 254 251 247 243 241 239 237 235 232 228 226 226 226 225 223 221 219 217 216 215 214 214 214 214 214 214 214 214 213 213 213 212 212 211 210 209 209 207 206 204 204 205 207 207 207 208 208 207 206 205 204
335 334 333 332 331 330 329 327 326 324 322 320 318 316 314 312 310 309 308 308 307 305 302 297 291 286 281 278 273 268 262 260 258 257 255 253 250 246 244 243 241 238 235 233 230 227 224 225 226 225 222 220 218 216 215 215 214 214 213 214 214 214 214 213 213 212 212 211 211 210 209 208 206 204 203 204 205 206 206 207 207 208 207 206 205 203
337 336 334 333 332 331 330 328 327 326 324 322 320 318 316 313 311 310 308 308 308 306 303 298 292 286 281 277 274 268 260 257 257 256 255 253 249 246 245 244 242 240 237 235 233 229 225 224 226 226 224 222 219 217 216 215 214 214 213 213 213 214 214 213 213 212 212 211 210 210 208 206 204 203 203 203 204 205 206 206 207 207 207 206 205 203
339 337 335 334 333 332 331 330 328 327 326 324 322 320 318 316 313 311 309 308 308 308 306 301 294 286 280 275 271 267 262 257 256 255 254 252 249 247 245 245 244 242 239 237 234 231 226 224 225 227 227 225 222 220 218 216 215 214 213 213 213 213 213 213 213 212 212 211 210 209 208 205 204 203 203 202 203 204 205 205 206 207 207 206 205 203
340 338 336 335 334 333 332 331 330 329 328 327 325 323 321 318 315 313 310 309 308 308 308 304 298 290 281 274 268 264 261 258 257 255 254 253 251 248 247 246 246 245 243 241 237 233 228 224 223 225 227 227 225 222 220 218 216 215 214 213 213 213 213 213 213 213 212 211 210 209 207 205 204 204 203 202 202 203 205 205 205 206 206 206 205 203
341 339 337 336 336 335 334 333 332 331 331 330 328 327 324 321 318 315 312 310 308 308 308 306 302 294 286 277 268 261 257 256 257 256 255 254 253 251 249 249 248 247 246 244 241 237 232 226 223 223 225 226 226 224 222 220 218 216 215 214 213 213 213 213 213 213 212 211 210 209 207 205 204 204 204 202 202 203 204 205 205 205 205 206 205 204
342 341 340 339 338 338 337 336 335 334 334 333 332 330 327 324 321 318 315 312 309 308 308 308 305 299 290 281 272 262 255 254 255 257 257 256 255 253 252 251 250 249 249 247 244 242 238 232 227 224 224 225 226 226 225 223 220 218 216 215 214 214 213 213 213 213 212 211 210 209 207 206 205 204 204 202 202 202 204 205 204 204 204 205 205 204
345 344 343 342 342 341 340 339 339 338 337 336 335 333 330 327 323 320 317 314 311 309 308 308 307 303 296 286 275 265 258 254 255 258 259 259 257 256 255 253 252 251 251 249 247 245 242 237 231 227 225 225 226 227 227 225 222 220 218 216 215 214 214 214 214 213 212 212 211 209 208 206 205 205 204 203 202 202 203 204 204 204 204 205 205 205
349 348 347 346 345 344 344 343 342 341 340 339 337 335 332 329 326 322 319 316 313 310 308 307 306 305 300 291 280 270 262 258 257 258 260 260 259 258 257 255 253 252 252 250 248 246 243 239 235 230 227 225 225 226 228 227 225 221 219 217 215 214 213 213 213 213 212 212 211 210 208 207 206 205 205 204 203 202 202 203 203 203 204 204 205 204
352 351 350 349 349 348 347 346 345 343 342 341 339 336 334 331 327 324 320 317 314 311 308 306 305 303 300 294 285 274 266 260 258 258 259 260 260 260 259 257 255 253 252 250 248 246 244 241 237 234 230 227 225 225 227 228 227 225 223 220 217 215 214 214 213 212 212 212 211 211 209 207 206 206 206 205 204 203 202 202 202 203 204 204 204 204
353 353 353 352 351 350 349 348 347 345 344 342 339 337 334 331 328 324 321 317 314 311 308 305 304 302 299 295 288 279 270 263 260 258 259 259 260 259 259 257 256 254 252 250 248 245 243 241 239 236 234 231 227 225 226 228 229 228 227 223 220 217 216 215 214 213 212 212 211 210 210 208 207 206 205 205 204 203 202 201 201 202 203 204 204 204
353 354 354 354 354 353 352 350 349 347 346 343 340 338 335 331 328 324 320 316 313 310 307 305 303 300 297 294 288 281 274 267 262 259 258 258 259 258 258 256 255 253 251 248 247 245 243 242 239 237 235 233 230 228 227 227 228 228 227 225 221 219 217 215 215 214 213 212 211 210 210 209 207 206 205 205 204 203 203 203 202 202 203 203 204 203
352 353 354 355 355 355 354 353 351 349 347 345 342 338 335 332 328 325 321 316 312 309 306 304 301 299 296 292 288 282 276 271 265 262 260 259 259 258 257 255 253 251 249 247 245 244 243 241 239 237 236 234 232 230 228 227 228 229 228 227 224 222 219 217 216 215 214 213 212 211 210 209 208 207 206 205 205 204 204 204 204 203 202 203 203 203
352 353 354 355 356 356 356 355 353 352 349 347 343 340 336 333 330 326 323 318 313 308 304 302 299 296 292 289 285 282 278 273 268 265 264 263 262 260 258 254 252 249 247 246 244 243 242 241 239 238 237 236 234 232 229 228 228 229 230 229 227 225 223 221 219 217 216 214 212 211 210 210 209 208 207 206 205 205 205 205 205 204 203 202 201 202
352 352 354 355 357 357 357 357 355 354 352 349 346 342 338 335 332 328 325 321 316 310 304 300 297 293 288 284 280 278 276 273 269 267 266 266 265 263 260 256 253 249 247 245 244 243 242 241 240 238 237 236 234 233 231 229 228 228 229 229 228 226 223 222 220 219 217 215 213 212 211 210 209 208 207 207 206 205 205 205 205 204 203 202 201 201
351 352 353 355 356 358 358 358 357 356 354 351 348 345 342 339 335 332 328 325 321 315 309 304 299 294 288 282 276 272 271 270 268 267 266 266 267 266 265 261 257 252 249 246 244 242 241 241 239 238 236 235 234 232 231 230 229 229 229 229 229 227 225 223 222 221 219 217 215 213 212 211 210 209 208 207 206 206 205 205 205 205 204 202 201 200
351 352 352 354 356 357 358 359 358 357 356 354 351 348 345 342 339 336 333 330 327 323 318 313 307 301 292 283 275 271 269 267 266 265 264 265 266 267 267 264 260 255 251 248 244 241 240 239 237 236 235 234 233 232 231 230 229 228 228 229 229 229 227 226 226 224 223 220 217 215 214 212 211 209 208 207 206 206 205 205 205 205 205 203 201 200
351 351 352 353 355 357 358 359 359 359 358 356 354 351 348 345 342 339 337 335 333 331 327 322 317 309 300 290 281 275 272 269 265 263 262 263 264 265 265 264 261 256 252 248 244 241 238 236 234 233 232 232 231 230 230 229 228 228 227 228 229 229 228 227 226 226 225 223 220 218 215 213 212 210 209 208 207 206 206 206 206 205 204 203 201 200
351 351 352 353 354 355 357 358 359 360 360 359 357 354 352 349 346 343 341 339 338 336 333 329 324 317 310 300 289 280 273 270 266 263 262 263 263 263 262 260 259 256 252 247 243 240 237 234 231 230 229 229 228 227 226 227 226 226 226 227 228 228 228 227 226 226 226 225 223 220 217 215 212 211 210 208 208 207 206 206 206 206 204 203 202 201
350 351 351 352 352 353 355 357 359 0 1 0 359 357 354 351 349 346 344 342 340 339 337 333 329 324 318 310 298 287 278 271 266 263 262 263 263 262 259 257 255 253 250 245 241 238 235 232 228 227 227 226 225 224 222 223 223 223 224 226 227 229 228 228 228 228 228 227 225 222 219 216 214 212 210 209 208 207 206 206 206 206 205 204 203 202
350 351 351 351 351 352 353 355 357 360 1 2 1 359 356 354 351 348 346 344 342 340 339 337 333 329 323 317 308 297 287 278 270 265 261 261 260 259 256 253 251 249 245 241 237 235 234 230 225 222 222 222 221 220 218 218 219 221 222 225 227 228 229 229 229 230 230 229 227 225 222 219 216 214 212 210 208 206 206 206 206 206 206 205 204 204
350 350 350 350 350 351 351 353 355 358 0 2 2 1 358 356 353 350 348 346 344 343 341 340 336 332 328 323 315 305 293 283 274 265 259 256 255 253 252 251 249 246 241 236 234 234 234 231 226 220 217 218 218 218 216 216 217 219 221 223 225 227 228 228 229 230 231 230 229 227 224 221 218 215 213 211 209 207 206 205 205 205 206 206 205 205